Flag for U.S.A. Weather past 2 weeks in Wichita, Kansas, U.S.A.

Now
70 °F

Thunderstorms. Overcast.


Feels Like: 70 °F
Forecast: 69 / 85 °F
Wind: 14 mph from Southwest

Location: Wichita Mid-Continent Airport

Current Time: Aug 28, 2014 at 10:46:04 PM

Latest Report: Aug 28, 2014 at 9:53 PM


Visibility: 10 mi

Pressure: 29.87 "Hg

Humidity: 81%

Dew point: 64 °F

Location of WichitaLocation

Historic Weather in Wichita — Graph

°F

Wichita temperature yesterday

Maximum temperature yesterday: 92 °F (at 3:53 PM)
Minimum temperature yesterday: 71 °F (at 6:53 AM)
Average temperature yesterday: 83 °F

Past Weeks' High & Low Weather Summary

 TemperatureHumidityPressure
High102 °F (Aug 24, 3:53 PM)90% (Aug 18, 2:53 AM)30.08 "Hg (Aug 18, 2:53 AM)
Low67 °F (Aug 14, 6:53 AM)17% (Aug 23, 3:53 PM)29.73 "Hg (Aug 19, 5:53 PM)
Average83 °F56%29.87 "Hg
* Reported Aug 13 8:53 PM — Aug 28 8:53 PM, Wichita, Weather by CustomWeather, © 2014

Note: Actual official high and low records may vary slightly from our data, if they occured in-between our weather recording intervals... More about our weather records

Advertising

Wichita weather history for previous 24 hours

 ConditionsComfort  
Time TempWeatherWind HumidityBarometerVisibility
8:53 PM
Aug 28
75 °FOvercast.16 mph74%29.85 "Hg10 mi
7:53 PM74 °FCloudy.9 mph74%29.82 "Hg10 mi
6:53 PM77 °FBroken clouds.10 mph69%29.83 "Hg10 mi
5:53 PM77 °FBroken clouds.13 mph77%29.84 "Hg10 mi
4:53 PM76 °FLight rain. Cloudy.13 mph80%29.85 "Hg10 mi
3:53 PM75 °FLight rain. Cloudy.9 mph82%29.87 "Hg8 mi
2:53 PM74 °FLight rain. Fog.9 mph88%29.89 "Hg6 mi
1:53 PM76 °FBroken clouds.3 mph80%29.90 "Hg7 mi
12:53 PM74 °FRain. Partly sunny.6 mph85%29.92 "Hg4 mi
11:53 AM79 °FPartly sunny.13 mph62%29.93 "Hg10 mi
10:53 AM80 °FLight rain. Broken clouds.8 mph60%29.91 "Hg10 mi
9:53 AM78 °FPartly sunny.9 mph64%29.92 "Hg10 mi
8:53 AM78 °FBroken clouds.9 mph64%29.92 "Hg10 mi
7:53 AM77 °FPartly cloudy.8 mph69%29.92 "Hg10 mi
6:53 AM77 °FPartly cloudy.8 mph66%29.91 "Hg10 mi
5:53 AM78 °FMostly cloudy.7 mph64%29.90 "Hg10 mi
4:53 AM78 °FMostly cloudy.9 mph64%29.90 "Hg10 mi
3:53 AM79 °FPassing clouds.9 mph62%29.89 "Hg10 mi
2:53 AM80 °FPassing clouds.12 mph58%29.90 "Hg10 mi
1:53 AM79 °FPassing clouds.12 mph60%29.91 "Hg10 mi
12:53 AM80 °FPartly cloudy.13 mph58%29.93 "Hg10 mi
11:53 PM
Aug 27
82 °FPassing clouds.12 mph55%29.93 "Hg10 mi
10:53 PM84 °FPassing clouds.14 mph53%29.93 "Hg10 mi
Weather by CustomWeather, © 2014

See weather overviewHow to use our weather pages